Year,Month,Day,Hour,Minute,Value (Times are PST for temperature in C)
2020,09,29,00,00,5.80
2020,09,29,00,01,5.90
2020,09,29,00,02,5.90
2020,09,29,00,03,5.90
2020,09,29,00,04,5.90
2020,09,29,00,05,5.90
2020,09,29,00,06,5.90
2020,09,29,00,07,5.90
2020,09,29,00,08,5.90
2020,09,29,00,09,5.90
2020,09,29,00,10,5.90
2020,09,29,00,11,5.90
2020,09,29,00,12,5.90
2020,09,29,00,13,5.90
2020,09,29,00,14,5.90
2020,09,29,00,15,5.90
2020,09,29,00,16,5.90
2020,09,29,00,17,5.90
2020,09,29,00,18,5.90
2020,09,29,00,19,5.90
2020,09,29,00,20,5.90
2020,09,29,00,21,5.90
2020,09,29,00,22,5.90
2020,09,29,00,23,5.90
2020,09,29,00,24,5.90
2020,09,29,00,25,5.90
2020,09,29,00,26,5.90
2020,09,29,00,27,5.90
2020,09,29,00,28,5.90
2020,09,29,00,29,6.00
2020,09,29,00,30,6.00
2020,09,29,00,31,6.00
2020,09,29,00,32,6.00
2020,09,29,00,33,6.00
2020,09,29,00,34,6.00
2020,09,29,00,35,6.00
2020,09,29,00,36,6.00
2020,09,29,00,37,6.00
2020,09,29,00,38,6.00
2020,09,29,00,39,6.00
2020,09,29,00,40,6.00
2020,09,29,00,41,6.00
2020,09,29,00,42,6.00
2020,09,29,00,43,5.90
2020,09,29,00,44,5.90
2020,09,29,00,45,5.90
2020,09,29,00,46,5.90
2020,09,29,00,47,5.90
2020,09,29,00,48,5.90
2020,09,29,00,49,5.90
2020,09,29,00,50,5.90
2020,09,29,00,51,5.90
2020,09,29,00,52,5.80
2020,09,29,00,53,5.80
2020,09,29,00,54,5.80
2020,09,29,00,55,5.80
2020,09,29,00,56,5.80
2020,09,29,00,57,5.80
2020,09,29,00,58,5.80
2020,09,29,00,59,5.80
2020,09,29,01,00,5.80
2020,09,29,01,01,5.80
2020,09,29,01,02,5.80
2020,09,29,01,03,5.80
2020,09,29,01,04,5.80
2020,09,29,01,05,5.80
2020,09,29,01,06,5.80
2020,09,29,01,07,5.80
2020,09,29,01,08,5.80
2020,09,29,01,09,5.80
2020,09,29,01,10,5.80
2020,09,29,01,11,5.80
2020,09,29,01,12,5.80
2020,09,29,01,13,5.80
2020,09,29,01,14,5.80
2020,09,29,01,15,5.80
2020,09,29,01,16,5.80
2020,09,29,01,17,5.80
2020,09,29,01,18,5.80
2020,09,29,01,19,5.80
2020,09,29,01,20,5.80
2020,09,29,01,21,5.80
2020,09,29,01,22,5.80
2020,09,29,01,23,5.80
2020,09,29,01,24,5.80
2020,09,29,01,25,5.80
2020,09,29,01,26,5.80
2020,09,29,01,27,5.80
2020,09,29,01,28,5.80
2020,09,29,01,29,5.80
2020,09,29,01,30,5.80
2020,09,29,01,31,5.80
2020,09,29,01,32,5.80
2020,09,29,01,33,5.80
2020,09,29,01,34,5.80
2020,09,29,01,35,5.80
2020,09,29,01,36,5.80
2020,09,29,01,37,5.80
2020,09,29,01,38,5.80
2020,09,29,01,39,5.80
2020,09,29,01,40,5.80
2020,09,29,01,41,5.80
2020,09,29,01,42,5.80
2020,09,29,01,43,5.80
2020,09,29,01,44,5.80
2020,09,29,01,45,5.80
2020,09,29,01,46,5.80
2020,09,29,01,47,5.80
2020,09,29,01,48,5.70
2020,09,29,01,49,5.70
2020,09,29,01,50,5.70
2020,09,29,01,51,5.70
2020,09,29,01,52,5.70
2020,09,29,01,53,5.70
2020,09,29,01,54,5.70
2020,09,29,01,55,5.70
2020,09,29,01,56,5.70
2020,09,29,01,57,5.70
2020,09,29,01,58,5.70
2020,09,29,01,59,5.70
2020,09,29,02,00,5.70
2020,09,29,02,01,5.70
2020,09,29,02,02,5.70
2020,09,29,02,03,5.70
2020,09,29,02,04,5.70
2020,09,29,02,05,5.60
2020,09,29,02,06,5.60
2020,09,29,02,07,5.60
2020,09,29,02,08,5.60
2020,09,29,02,09,5.60
2020,09,29,02,10,5.60
2020,09,29,02,11,5.60
2020,09,29,02,12,5.60
2020,09,29,02,13,5.60
2020,09,29,02,14,5.60
2020,09,29,02,15,5.60
2020,09,29,02,16,5.60
2020,09,29,02,17,5.50
2020,09,29,02,18,5.50
2020,09,29,02,19,5.50
2020,09,29,02,20,5.50
2020,09,29,02,21,5.50
2020,09,29,02,22,5.50
2020,09,29,02,23,5.50
2020,09,29,02,24,5.50
2020,09,29,02,25,5.50
2020,09,29,02,26,5.40
2020,09,29,02,27,5.40
2020,09,29,02,28,5.40
2020,09,29,02,29,5.40
2020,09,29,02,30,5.40
2020,09,29,02,31,5.40
2020,09,29,02,32,5.40
2020,09,29,02,33,5.40
2020,09,29,02,34,5.40
2020,09,29,02,35,5.40
2020,09,29,02,36,5.40
2020,09,29,02,37,5.40
2020,09,29,02,38,5.30
2020,09,29,02,39,5.30
2020,09,29,02,40,5.30
2020,09,29,02,41,5.30
2020,09,29,02,42,5.30
2020,09,29,02,43,5.30
2020,09,29,02,44,5.30
2020,09,29,02,45,5.30
2020,09,29,02,46,5.30
2020,09,29,02,47,5.30
2020,09,29,02,48,5.30
2020,09,29,02,49,5.30
2020,09,29,02,50,5.30
2020,09,29,02,51,5.30
2020,09,29,02,52,5.30
2020,09,29,02,53,5.30
2020,09,29,02,54,5.30
2020,09,29,02,55,5.30
2020,09,29,02,56,5.30
2020,09,29,02,57,5.30
2020,09,29,02,58,5.30
2020,09,29,02,59,5.20
2020,09,29,03,00,5.20
2020,09,29,03,01,5.20
2020,09,29,03,02,5.20
2020,09,29,03,03,5.20
2020,09,29,03,04,5.20
2020,09,29,03,05,5.20
2020,09,29,03,06,5.20
2020,09,29,03,07,5.20
2020,09,29,03,08,5.20
2020,09,29,03,09,5.20
2020,09,29,03,10,5.20
2020,09,29,03,11,5.20
2020,09,29,03,12,5.20
2020,09,29,03,13,5.20
2020,09,29,03,14,5.20
2020,09,29,03,15,5.10
2020,09,29,03,16,5.10
2020,09,29,03,17,5.10
2020,09,29,03,18,5.10
2020,09,29,03,19,5.10
2020,09,29,03,20,5.10
2020,09,29,03,21,5.10
2020,09,29,03,22,5.10
2020,09,29,03,23,5.10
2020,09,29,03,24,5.10
2020,09,29,03,25,5.10
2020,09,29,03,26,5.00
2020,09,29,03,27,5.00
2020,09,29,03,28,5.00
2020,09,29,03,29,5.00
2020,09,29,03,30,5.00
2020,09,29,03,31,5.00
2020,09,29,03,32,4.90
2020,09,29,03,33,4.90
2020,09,29,03,34,4.90
2020,09,29,03,35,4.90
2020,09,29,03,36,4.90
2020,09,29,03,37,4.90
2020,09,29,03,38,4.90
2020,09,29,03,39,4.90
2020,09,29,03,40,4.90
2020,09,29,03,41,4.90
2020,09,29,03,42,4.90
2020,09,29,03,43,4.90
2020,09,29,03,44,4.90
2020,09,29,03,45,4.90
2020,09,29,03,46,4.90
2020,09,29,03,47,4.90
2020,09,29,03,48,4.90
2020,09,29,03,49,4.80
2020,09,29,03,50,4.80
2020,09,29,03,51,4.90
2020,09,29,03,52,4.90
2020,09,29,03,53,4.80
2020,09,29,03,54,4.80
2020,09,29,03,55,4.80
2020,09,29,03,56,4.80
2020,09,29,03,57,4.80
2020,09,29,03,58,4.80
2020,09,29,03,59,4.80
2020,09,29,04,00,4.80
2020,09,29,04,01,4.80
2020,09,29,04,02,4.80
2020,09,29,04,03,4.80
2020,09,29,04,04,4.80
2020,09,29,04,05,4.80
2020,09,29,04,06,4.80
2020,09,29,04,07,4.80
2020,09,29,04,08,4.80
2020,09,29,04,09,4.80
2020,09,29,04,10,4.80
2020,09,29,04,11,4.80
2020,09,29,04,12,4.80
2020,09,29,04,13,4.80
2020,09,29,04,14,4.80
2020,09,29,04,15,4.80
2020,09,29,04,16,4.80
2020,09,29,04,17,4.80
2020,09,29,04,18,4.80
2020,09,29,04,19,4.80
2020,09,29,04,20,4.80
2020,09,29,04,21,4.80
2020,09,29,04,22,4.80
2020,09,29,04,23,4.80
2020,09,29,04,24,4.80
2020,09,29,04,25,4.80
2020,09,29,04,26,4.80
2020,09,29,04,27,4.80
2020,09,29,04,28,4.80
2020,09,29,04,29,4.80
2020,09,29,04,30,4.80
2020,09,29,04,31,4.80
2020,09,29,04,32,4.80
2020,09,29,04,33,4.80
2020,09,29,04,34,4.80
2020,09,29,04,35,4.80
2020,09,29,04,36,4.80
2020,09,29,04,37,4.80
2020,09,29,04,38,4.70
2020,09,29,04,39,4.70
2020,09,29,04,40,4.70
2020,09,29,04,41,4.80
2020,09,29,04,42,4.80
2020,09,29,04,43,4.70
2020,09,29,04,44,4.70
2020,09,29,04,45,4.70
2020,09,29,04,46,4.70
2020,09,29,04,47,4.70
2020,09,29,04,48,4.70
2020,09,29,04,49,4.70
2020,09,29,04,50,4.70
2020,09,29,04,51,4.70
2020,09,29,04,52,4.70
2020,09,29,04,53,4.70
2020,09,29,04,54,4.70
2020,09,29,04,55,4.70
2020,09,29,04,56,4.70
2020,09,29,04,57,4.70
2020,09,29,04,58,4.70
2020,09,29,04,59,4.70
2020,09,29,05,00,4.70
2020,09,29,05,01,4.70
2020,09,29,05,02,4.70
2020,09,29,05,03,4.70
2020,09,29,05,04,4.70
2020,09,29,05,05,4.70
2020,09,29,05,06,4.70
2020,09,29,05,07,4.70
2020,09,29,05,08,4.70
2020,09,29,05,09,4.70
2020,09,29,05,10,4.70
2020,09,29,05,11,4.70
2020,09,29,05,12,4.70
2020,09,29,05,13,4.70
2020,09,29,05,14,4.70
2020,09,29,05,15,4.70
2020,09,29,05,16,4.70
2020,09,29,05,17,4.70
2020,09,29,05,18,4.70
2020,09,29,05,19,4.60
2020,09,29,05,20,4.60
2020,09,29,05,21,4.60
2020,09,29,05,22,4.60
2020,09,29,05,23,4.60
2020,09,29,05,24,4.60
2020,09,29,05,25,4.60
2020,09,29,05,26,4.60
2020,09,29,05,27,4.60
2020,09,29,05,28,4.60
2020,09,29,05,29,4.60
2020,09,29,05,30,4.60
2020,09,29,05,31,4.60
2020,09,29,05,32,4.60
2020,09,29,05,33,4.60
2020,09,29,05,34,4.60
2020,09,29,05,35,4.60
2020,09,29,05,36,4.60
2020,09,29,05,37,4.60
2020,09,29,05,38,4.60
2020,09,29,05,39,4.60
2020,09,29,05,40,4.60
2020,09,29,05,41,4.60
2020,09,29,05,42,4.60
2020,09,29,05,43,4.60
2020,09,29,05,44,4.60
2020,09,29,05,45,4.60
2020,09,29,05,46,4.60
2020,09,29,05,47,4.60
2020,09,29,05,48,4.60
2020,09,29,05,49,4.60
2020,09,29,05,50,4.60
2020,09,29,05,51,4.60
2020,09,29,05,52,4.60
2020,09,29,05,53,4.60
2020,09,29,05,54,4.60
2020,09,29,05,55,4.60
2020,09,29,05,56,4.60
2020,09,29,05,57,4.60
2020,09,29,05,58,4.60
2020,09,29,05,59,4.50
2020,09,29,06,00,4.60
2020,09,29,06,01,4.60
2020,09,29,06,02,4.60
2020,09,29,06,03,4.60
2020,09,29,06,04,4.60
2020,09,29,06,05,4.60
2020,09,29,06,06,4.60
2020,09,29,06,07,4.60
2020,09,29,06,08,4.60
2020,09,29,06,09,4.60
2020,09,29,06,10,4.60
2020,09,29,06,11,4.60
2020,09,29,06,12,4.60
2020,09,29,06,13,4.60
2020,09,29,06,14,4.60
2020,09,29,06,15,4.60
2020,09,29,06,16,4.60
2020,09,29,06,17,4.60
2020,09,29,06,18,4.60
2020,09,29,06,19,4.60
2020,09,29,06,20,4.60
2020,09,29,06,21,4.60
2020,09,29,06,22,4.60
2020,09,29,06,23,4.60
2020,09,29,06,24,4.50
2020,09,29,06,25,4.50
2020,09,29,06,26,4.50
2020,09,29,06,27,4.50
2020,09,29,06,28,4.50
2020,09,29,06,29,4.50
2020,09,29,06,30,4.50
2020,09,29,06,31,4.50
2020,09,29,06,32,4.50
2020,09,29,06,33,4.50
2020,09,29,06,34,4.50
2020,09,29,06,35,4.50
2020,09,29,06,36,4.50
2020,09,29,06,37,4.50
2020,09,29,06,38,4.50
2020,09,29,06,39,4.50
2020,09,29,06,40,4.50
2020,09,29,06,41,4.50
2020,09,29,06,42,4.50
2020,09,29,06,43,4.50
2020,09,29,06,44,4.50
2020,09,29,06,45,4.50
2020,09,29,06,46,4.50
2020,09,29,06,47,4.50
2020,09,29,06,48,4.50
2020,09,29,06,49,4.50
2020,09,29,06,50,4.50
2020,09,29,06,51,4.50
2020,09,29,06,52,4.50
2020,09,29,06,53,4.50
2020,09,29,06,54,4.50
2020,09,29,06,55,4.50
2020,09,29,06,56,4.50
2020,09,29,06,57,4.50
2020,09,29,06,58,4.50
2020,09,29,06,59,4.50
2020,09,29,07,00,4.50
2020,09,29,07,01,4.50
2020,09,29,07,02,4.50
2020,09,29,07,03,4.50
2020,09,29,07,04,4.50
2020,09,29,07,05,4.50
2020,09,29,07,06,4.50
2020,09,29,07,07,4.50
2020,09,29,07,08,4.50
2020,09,29,07,09,4.50
2020,09,29,07,10,4.50
2020,09,29,07,11,4.50
2020,09,29,07,12,4.50
2020,09,29,07,13,4.50
2020,09,29,07,14,4.40
2020,09,29,07,15,4.40
2020,09,29,07,16,4.40
2020,09,29,07,17,4.40
2020,09,29,07,18,4.40
2020,09,29,07,19,4.40
2020,09,29,07,20,4.40
2020,09,29,07,21,4.40
2020,09,29,07,22,4.50
2020,09,29,07,23,4.40
2020,09,29,07,24,4.40
2020,09,29,07,25,4.40
2020,09,29,07,26,4.40
2020,09,29,07,27,4.40
2020,09,29,07,28,4.40
2020,09,29,07,29,4.40
2020,09,29,07,30,4.40
2020,09,29,07,31,4.40
2020,09,29,07,32,4.40
2020,09,29,07,33,4.40
2020,09,29,07,34,4.40
2020,09,29,07,35,4.40
2020,09,29,07,36,4.40
2020,09,29,07,37,4.40
2020,09,29,07,38,4.40
2020,09,29,07,39,4.40
2020,09,29,07,40,4.40
2020,09,29,07,41,4.40
2020,09,29,07,42,4.40
2020,09,29,07,43,4.40
2020,09,29,07,44,4.40
2020,09,29,07,45,4.40
2020,09,29,07,46,4.40
2020,09,29,07,47,4.40
2020,09,29,07,48,4.40
2020,09,29,07,49,4.40
2020,09,29,07,50,4.40
2020,09,29,07,51,4.40
2020,09,29,07,52,4.40
2020,09,29,07,53,4.40
2020,09,29,07,54,4.40
2020,09,29,07,55,4.40
2020,09,29,07,56,4.40
2020,09,29,07,57,4.40
2020,09,29,07,58,4.40
2020,09,29,07,59,4.40
2020,09,29,08,00,4.40
2020,09,29,08,01,4.40
2020,09,29,08,02,4.40
2020,09,29,08,03,4.40
2020,09,29,08,04,4.30
2020,09,29,08,05,4.30
2020,09,29,08,06,4.30
2020,09,29,08,07,4.30
2020,09,29,08,08,4.30
2020,09,29,08,09,4.30
2020,09,29,08,10,4.30
2020,09,29,08,11,4.30
2020,09,29,08,12,4.30
2020,09,29,08,13,4.30
2020,09,29,08,14,4.30
2020,09,29,08,15,4.30
2020,09,29,08,16,4.30
2020,09,29,08,17,4.30
2020,09,29,08,18,4.30
2020,09,29,08,19,4.30
2020,09,29,08,20,4.30
2020,09,29,08,21,4.30
2020,09,29,08,22,4.30
2020,09,29,08,23,4.30
2020,09,29,08,24,4.30
2020,09,29,08,25,4.30
2020,09,29,08,26,4.30
2020,09,29,08,27,4.30
2020,09,29,08,28,4.30
2020,09,29,08,29,4.30
2020,09,29,08,30,4.30
2020,09,29,08,31,4.30
2020,09,29,08,32,4.30
2020,09,29,08,33,4.30
2020,09,29,08,34,4.30
2020,09,29,08,35,4.30
2020,09,29,08,36,4.30
2020,09,29,08,37,4.20
2020,09,29,08,38,4.20
2020,09,29,08,39,4.20
2020,09,29,08,40,4.20
2020,09,29,08,41,4.20
2020,09,29,08,42,4.20
2020,09,29,08,43,4.20
2020,09,29,08,44,4.20
2020,09,29,08,45,4.20
2020,09,29,08,46,4.20
2020,09,29,08,47,4.20
2020,09,29,08,48,4.20
2020,09,29,08,49,4.10
2020,09,29,08,50,4.10
2020,09,29,08,51,4.10
2020,09,29,08,52,4.10
2020,09,29,08,53,4.10
2020,09,29,08,54,4.10
2020,09,29,08,55,4.10
2020,09,29,08,56,4.10
2020,09,29,08,57,4.10
2020,09,29,08,58,4.10
2020,09,29,08,59,4.10
2020,09,29,09,00,4.10
2020,09,29,09,01,4.20
2020,09,29,09,02,4.20
2020,09,29,09,03,4.20
2020,09,29,09,04,4.20
2020,09,29,09,05,4.20
2020,09,29,09,06,4.10
2020,09,29,09,07,4.10
2020,09,29,09,08,4.10
2020,09,29,09,09,4.10
2020,09,29,09,10,4.10
2020,09,29,09,11,4.10
2020,09,29,09,12,4.10
2020,09,29,09,13,4.10
2020,09,29,09,14,4.10
2020,09,29,09,15,4.10
2020,09,29,09,16,4.10
2020,09,29,09,17,4.10
2020,09,29,09,18,4.10
2020,09,29,09,19,4.10
2020,09,29,09,20,4.10
2020,09,29,09,21,4.10
2020,09,29,09,22,4.10
2020,09,29,09,23,4.10
2020,09,29,09,24,4.10
2020,09,29,09,25,4.10
2020,09,29,09,26,4.10
2020,09,29,09,27,4.10
2020,09,29,09,28,4.10
2020,09,29,09,29,4.10
2020,09,29,09,30,4.10
2020,09,29,09,31,4.10
2020,09,29,09,32,4.10
2020,09,29,09,33,4.10
2020,09,29,09,34,4.10
2020,09,29,09,35,4.10
2020,09,29,09,36,4.10
2020,09,29,09,37,4.10
2020,09,29,09,38,4.00
2020,09,29,09,39,4.00
2020,09,29,09,40,4.00
2020,09,29,09,41,4.00
2020,09,29,09,42,4.00
2020,09,29,09,43,3.90
2020,09,29,09,44,3.90
2020,09,29,09,45,3.90
2020,09,29,09,46,3.90
2020,09,29,09,47,3.90
2020,09,29,09,48,3.90
2020,09,29,09,49,3.90
2020,09,29,09,50,3.90
2020,09,29,09,51,3.90
2020,09,29,09,52,3.90
2020,09,29,09,53,3.90
2020,09,29,09,54,3.90
2020,09,29,09,55,3.90
2020,09,29,09,56,3.90
2020,09,29,09,57,3.90
2020,09,29,09,58,3.90
2020,09,29,09,59,3.90
2020,09,29,10,00,3.90
2020,09,29,10,01,3.90
2020,09,29,10,02,3.90
2020,09,29,10,03,3.90
2020,09,29,10,04,3.90
2020,09,29,10,05,3.90
2020,09,29,10,06,3.90
2020,09,29,10,07,3.90
2020,09,29,10,08,3.90
2020,09,29,10,09,3.90
2020,09,29,10,10,3.90
2020,09,29,10,11,3.90
2020,09,29,10,12,3.90
2020,09,29,10,13,3.90
2020,09,29,10,14,3.90
2020,09,29,10,15,3.90
2020,09,29,10,16,3.90
2020,09,29,10,17,3.90
2020,09,29,10,18,3.90
2020,09,29,10,19,3.90
2020,09,29,10,20,3.90
2020,09,29,10,21,3.90
2020,09,29,10,22,3.90
2020,09,29,10,23,3.90
2020,09,29,10,24,3.90
2020,09,29,10,25,3.90
2020,09,29,10,26,3.90
2020,09,29,10,27,3.90
2020,09,29,10,28,3.90
2020,09,29,10,29,3.90
2020,09,29,10,30,3.90
2020,09,29,10,31,3.90
2020,09,29,10,32,3.90
2020,09,29,10,33,3.90
2020,09,29,10,34,3.90
2020,09,29,10,35,3.90
2020,09,29,10,36,3.90
2020,09,29,10,37,3.90
2020,09,29,10,38,3.90
2020,09,29,10,39,3.90
2020,09,29,10,40,3.90
2020,09,29,10,41,3.90
2020,09,29,10,42,3.90
2020,09,29,10,43,3.90
2020,09,29,10,44,3.90
2020,09,29,10,45,3.90
2020,09,29,10,46,3.90
2020,09,29,10,47,3.90
2020,09,29,10,48,3.90
2020,09,29,10,49,3.90
2020,09,29,10,50,3.90
2020,09,29,10,51,3.90
2020,09,29,10,52,3.90
2020,09,29,10,53,3.90
2020,09,29,10,54,3.90
2020,09,29,10,55,3.90
2020,09,29,10,56,3.90
2020,09,29,10,57,3.90
2020,09,29,10,58,3.90
2020,09,29,10,59,3.90
2020,09,29,11,00,3.90
2020,09,29,11,01,3.90
2020,09,29,11,02,3.90
2020,09,29,11,03,3.90
2020,09,29,11,04,3.90
2020,09,29,11,05,3.90
2020,09,29,11,06,4.00
2020,09,29,11,07,4.00
2020,09,29,11,08,4.00
2020,09,29,11,09,4.00
2020,09,29,11,10,3.90
2020,09,29,11,11,3.90
2020,09,29,11,12,3.90
2020,09,29,11,13,3.90
2020,09,29,11,14,3.90
2020,09,29,11,15,3.90
2020,09,29,11,16,3.90
2020,09,29,11,17,3.80
2020,09,29,11,18,3.80
2020,09,29,11,19,3.80
2020,09,29,11,20,3.80
2020,09,29,11,21,3.80
2020,09,29,11,22,3.80
2020,09,29,11,23,3.90
2020,09,29,11,24,3.80
2020,09,29,11,25,3.80
2020,09,29,11,26,3.80
2020,09,29,11,27,3.80
2020,09,29,11,28,3.80
2020,09,29,11,29,3.80
2020,09,29,11,30,3.80
2020,09,29,11,31,3.80
2020,09,29,11,32,3.80
2020,09,29,11,33,3.80
2020,09,29,11,34,3.80
2020,09,29,11,35,3.90
2020,09,29,11,36,3.90
2020,09,29,11,37,3.90
2020,09,29,11,38,3.90
2020,09,29,11,39,3.90
2020,09,29,11,40,3.90
2020,09,29,11,41,3.90
2020,09,29,11,42,3.90
2020,09,29,11,43,3.90
2020,09,29,11,44,4.00
2020,09,29,11,45,3.90
2020,09,29,11,46,3.90
2020,09,29,11,47,4.00
2020,09,29,11,48,4.00
2020,09,29,11,49,4.00
2020,09,29,11,50,4.00
2020,09,29,11,51,4.00
2020,09,29,11,52,4.00
2020,09,29,11,53,4.00
2020,09,29,11,54,4.00
2020,09,29,11,55,4.00
2020,09,29,11,56,4.00
2020,09,29,11,57,4.10
2020,09,29,11,58,4.10
2020,09,29,11,59,4.10
2020,09,29,12,00,4.10
2020,09,29,12,01,4.10
2020,09,29,12,02,4.10
2020,09,29,12,03,4.10
2020,09,29,12,04,4.10
2020,09,29,12,05,4.10
2020,09,29,12,06,4.10
2020,09,29,12,07,4.10
2020,09,29,12,08,4.10
2020,09,29,12,09,4.10
2020,09,29,12,10,4.10
2020,09,29,12,11,4.10
2020,09,29,12,12,4.10
2020,09,29,12,13,4.10
2020,09,29,12,14,4.20
2020,09,29,12,15,4.20
2020,09,29,12,16,4.20
2020,09,29,12,17,4.20
2020,09,29,12,18,4.20
2020,09,29,12,19,4.20
2020,09,29,12,20,4.20
2020,09,29,12,21,4.20
2020,09,29,12,22,4.20
2020,09,29,12,23,4.20
2020,09,29,12,24,4.20
2020,09,29,12,25,4.30
2020,09,29,12,26,4.30
2020,09,29,12,27,4.30
2020,09,29,12,28,4.30
2020,09,29,12,29,4.30
2020,09,29,12,30,4.30
2020,09,29,12,31,4.30
2020,09,29,12,32,4.30
2020,09,29,12,33,4.30
2020,09,29,12,34,4.30
2020,09,29,12,35,4.30
2020,09,29,12,36,4.30
2020,09,29,12,37,4.30
2020,09,29,12,38,4.30
2020,09,29,12,39,4.30
2020,09,29,12,40,4.30
2020,09,29,12,41,4.30
2020,09,29,12,42,4.30
2020,09,29,12,43,4.30
2020,09,29,12,44,4.30
2020,09,29,12,45,4.30
2020,09,29,12,46,4.30
2020,09,29,12,47,4.30
2020,09,29,12,48,4.30
2020,09,29,12,49,4.30
2020,09,29,12,50,4.40
2020,09,29,12,51,4.40
2020,09,29,12,52,4.40
2020,09,29,12,53,4.40
2020,09,29,12,54,4.40
2020,09,29,12,55,4.40
2020,09,29,12,56,4.40
2020,09,29,12,57,4.40
2020,09,29,12,58,4.40
2020,09,29,12,59,4.40
2020,09,29,13,00,4.40
2020,09,29,13,01,4.40
2020,09,29,13,02,4.40
2020,09,29,13,03,4.40
2020,09,29,13,04,4.40
2020,09,29,13,05,4.40
2020,09,29,13,06,4.40
2020,09,29,13,07,4.40
2020,09,29,13,08,4.40
2020,09,29,13,09,4.50
2020,09,29,13,10,4.50
2020,09,29,13,11,4.50
2020,09,29,13,12,4.60
2020,09,29,13,13,4.60
2020,09,29,13,14,4.60
2020,09,29,13,15,4.60
2020,09,29,13,16,4.60
2020,09,29,13,17,4.60
2020,09,29,13,18,4.60
2020,09,29,13,19,4.60
2020,09,29,13,20,4.60
2020,09,29,13,21,4.70
2020,09,29,13,22,4.70
2020,09,29,13,23,4.70
2020,09,29,13,24,4.70
2020,09,29,13,25,4.70
2020,09,29,13,26,4.70
2020,09,29,13,27,4.70
2020,09,29,13,28,4.70
2020,09,29,13,29,4.70
2020,09,29,13,30,4.70
2020,09,29,13,31,4.70
2020,09,29,13,32,4.70
2020,09,29,13,33,4.70
2020,09,29,13,34,4.70
2020,09,29,13,35,4.70
2020,09,29,13,36,4.80
2020,09,29,13,37,4.80
2020,09,29,13,38,4.80
2020,09,29,13,39,4.80
2020,09,29,13,40,4.80
2020,09,29,13,41,4.80
2020,09,29,13,42,4.80
2020,09,29,13,43,4.80
2020,09,29,13,44,4.80
2020,09,29,13,45,4.80
2020,09,29,13,46,4.80
2020,09,29,13,47,4.80
2020,09,29,13,48,4.80
2020,09,29,13,49,4.80
2020,09,29,13,50,4.80
2020,09,29,13,51,4.80
2020,09,29,13,52,4.90
2020,09,29,13,53,4.90
2020,09,29,13,54,5.00
2020,09,29,13,55,5.00
2020,09,29,13,56,5.10
2020,09,29,13,57,5.10
2020,09,29,13,58,5.10
2020,09,29,13,59,5.10
2020,09,29,14,00,5.10
2020,09,29,14,01,5.20
2020,09,29,14,02,5.20
2020,09,29,14,03,5.20
2020,09,29,14,04,5.20
2020,09,29,14,05,5.20
2020,09,29,14,06,5.30
2020,09,29,14,07,5.30
2020,09,29,14,08,5.30
2020,09,29,14,09,5.30
2020,09,29,14,10,5.40
2020,09,29,14,11,5.40
2020,09,29,14,12,5.50
2020,09,29,14,13,5.50
2020,09,29,14,14,5.50
2020,09,29,14,15,5.60
2020,09,29,14,16,5.60
2020,09,29,14,17,5.60
2020,09,29,14,18,5.70
2020,09,29,14,19,5.70
2020,09,29,14,20,5.70
2020,09,29,14,21,5.80
2020,09,29,14,22,5.80
2020,09,29,14,23,5.90
2020,09,29,14,24,5.90
2020,09,29,14,25,6.00
2020,09,29,14,26,6.00
2020,09,29,14,27,6.00
2020,09,29,14,28,6.10
2020,09,29,14,29,6.10
2020,09,29,14,30,6.10
2020,09,29,14,31,6.20
2020,09,29,14,32,6.20
2020,09,29,14,33,6.30
2020,09,29,14,34,6.30
2020,09,29,14,35,6.30
2020,09,29,14,36,6.40
2020,09,29,14,37,6.40
2020,09,29,14,38,6.50
2020,09,29,14,39,6.50
2020,09,29,14,40,6.60
2020,09,29,14,41,6.70
2020,09,29,14,42,6.80
2020,09,29,14,43,6.80
2020,09,29,14,44,6.80
2020,09,29,14,45,6.80
2020,09,29,14,46,6.80
2020,09,29,14,47,6.90
2020,09,29,14,48,6.90
2020,09,29,14,49,7.00
2020,09,29,14,50,7.10
2020,09,29,14,51,7.10
2020,09,29,14,52,7.20
2020,09,29,14,53,7.30
2020,09,29,14,54,7.30
2020,09,29,14,55,7.30
2020,09,29,14,56,7.40
2020,09,29,14,57,7.50
2020,09,29,14,58,7.50
2020,09,29,14,59,7.60
2020,09,29,15,00,7.60
2020,09,29,15,01,7.70
2020,09,29,15,02,7.70
2020,09,29,15,03,7.70
2020,09,29,15,04,7.70
2020,09,29,15,05,7.70
2020,09,29,15,06,7.70
2020,09,29,15,07,7.70
2020,09,29,15,08,7.80
2020,09,29,15,09,7.80
2020,09,29,15,10,7.80
2020,09,29,15,11,7.80
2020,09,29,15,12,7.80
2020,09,29,15,13,7.80
2020,09,29,15,14,7.80
2020,09,29,15,15,7.80
2020,09,29,15,16,7.90
2020,09,29,15,17,7.90
2020,09,29,15,18,7.90
2020,09,29,15,19,7.90
2020,09,29,15,20,8.00
2020,09,29,15,21,8.00
2020,09,29,15,22,8.00
2020,09,29,15,23,8.10
2020,09,29,15,24,8.10
2020,09,29,15,25,8.10
2020,09,29,15,26,8.10
2020,09,29,15,27,8.10
2020,09,29,15,28,8.10
2020,09,29,15,29,8.10
2020,09,29,15,30,8.10
2020,09,29,15,31,8.20
2020,09,29,15,32,8.20
2020,09,29,15,33,8.20
2020,09,29,15,34,8.20
2020,09,29,15,35,8.20
2020,09,29,15,36,8.30
2020,09,29,15,37,8.30
2020,09,29,15,38,8.30
2020,09,29,15,39,8.40
2020,09,29,15,40,8.50
2020,09,29,15,41,8.60
2020,09,29,15,42,8.60
2020,09,29,15,43,8.60
2020,09,29,15,44,8.70
2020,09,29,15,45,8.70
2020,09,29,15,46,8.80
2020,09,29,15,47,8.80
2020,09,29,15,48,8.80
2020,09,29,15,49,8.80
2020,09,29,15,50,8.80
2020,09,29,15,51,8.80
2020,09,29,15,52,8.80
2020,09,29,15,53,8.80
2020,09,29,15,54,8.80
2020,09,29,15,55,8.90
2020,09,29,15,56,8.90
2020,09,29,15,57,8.90
2020,09,29,15,58,8.90
2020,09,29,15,59,8.90
2020,09,29,16,00,8.90
2020,09,29,16,01,8.90
2020,09,29,16,02,8.90
2020,09,29,16,03,9.00
2020,09,29,16,04,9.00
2020,09,29,16,05,9.00
2020,09,29,16,06,9.00
2020,09,29,16,07,9.10
2020,09,29,16,08,9.10
2020,09,29,16,09,9.20
2020,09,29,16,10,9.20
2020,09,29,16,11,9.20
2020,09,29,16,12,9.20
2020,09,29,16,13,9.20
2020,09,29,16,14,9.20
2020,09,29,16,15,9.20
2020,09,29,16,16,9.20
2020,09,29,16,17,9.20
2020,09,29,16,18,9.20
2020,09,29,16,19,9.20
2020,09,29,16,20,9.20
2020,09,29,16,21,9.20
2020,09,29,16,22,9.20
2020,09,29,16,23,9.20
2020,09,29,16,24,9.20
2020,09,29,16,25,9.20
2020,09,29,16,26,9.20
2020,09,29,16,27,9.20
2020,09,29,16,28,9.20
2020,09,29,16,29,9.20
2020,09,29,16,30,9.20
2020,09,29,16,31,9.20
2020,09,29,16,32,9.20
2020,09,29,16,33,9.20
2020,09,29,16,34,9.20
2020,09,29,16,35,9.20
2020,09,29,16,36,9.20
2020,09,29,16,37,9.20
2020,09,29,16,38,9.20
2020,09,29,16,39,9.20
2020,09,29,16,40,9.20
2020,09,29,16,41,9.20
2020,09,29,16,42,9.20
2020,09,29,16,43,9.20
2020,09,29,16,44,9.20
2020,09,29,16,45,9.30
2020,09,29,16,46,9.30
2020,09,29,16,47,9.30
2020,09,29,16,48,9.30
2020,09,29,16,49,9.30
2020,09,29,16,50,9.30
2020,09,29,16,51,9.30
2020,09,29,16,52,9.30
2020,09,29,16,53,9.30
2020,09,29,16,54,9.30
2020,09,29,16,55,9.30
2020,09,29,16,56,9.30
2020,09,29,16,57,9.30
2020,09,29,16,58,9.30
2020,09,29,16,59,9.30
2020,09,29,17,00,9.30
2020,09,29,17,01,9.40
2020,09,29,17,02,9.40
2020,09,29,17,03,9.40
2020,09,29,17,04,9.40
2020,09,29,17,05,9.50
2020,09,29,17,06,9.50
2020,09,29,17,07,9.60
2020,09,29,17,08,9.60
2020,09,29,17,09,9.60
2020,09,29,17,10,9.60
2020,09,29,17,11,9.60
2020,09,29,17,12,9.60
2020,09,29,17,13,9.70
2020,09,29,17,14,9.70
2020,09,29,17,15,9.70
2020,09,29,17,16,9.70
2020,09,29,17,17,9.70
2020,09,29,17,18,9.70
2020,09,29,17,19,9.70
2020,09,29,17,20,9.70
2020,09,29,17,21,9.70
2020,09,29,17,22,9.70
2020,09,29,17,23,9.70
2020,09,29,17,24,9.80
2020,09,29,17,25,9.80
2020,09,29,17,26,9.80
2020,09,29,17,27,9.80
2020,09,29,17,28,9.70
2020,09,29,17,29,9.70
2020,09,29,17,30,9.70
2020,09,29,17,31,9.70
2020,09,29,17,32,9.70
2020,09,29,17,33,9.70
2020,09,29,17,34,9.70
2020,09,29,17,35,9.70
2020,09,29,17,36,9.70
2020,09,29,17,37,9.60
2020,09,29,17,38,9.60
2020,09,29,17,39,9.60
2020,09,29,17,40,9.60
2020,09,29,17,41,9.60
2020,09,29,17,42,9.60
2020,09,29,17,43,9.60
2020,09,29,17,44,9.60
2020,09,29,17,45,9.60
2020,09,29,17,46,9.60
2020,09,29,17,47,9.60
2020,09,29,17,48,9.60
2020,09,29,17,49,9.50
2020,09,29,17,50,9.50
2020,09,29,17,51,9.50
2020,09,29,17,52,9.50
2020,09,29,17,53,9.50
2020,09,29,17,54,9.40
2020,09,29,17,55,9.40
2020,09,29,17,56,9.40
2020,09,29,17,57,9.40
2020,09,29,17,58,9.40
2020,09,29,17,59,9.40
2020,09,29,18,00,9.40
2020,09,29,18,01,9.40
2020,09,29,18,02,9.40
2020,09,29,18,03,9.30
2020,09,29,18,04,9.30
2020,09,29,18,05,9.30
2020,09,29,18,06,9.30